Regional Weather Roundup
Issued by NWS

Home | Current Version | Previous Version | Graphics & Text | Print | Product List | Glossary On
Versions: 1 2 3 4 5 6 7 8 9 10 11 12 13 14 15 16 17 18 19 20 21 22 23 24 25 26 27 28 29 30 31 32 33 34 35 36 37 38 39 40 41 42 43 44 45 46 47 48 49 50
000
ASUS43 KDMX 291503
RWRIA

WEATHER ROUNDUP FOR IOWA
NATIONAL WEATHER SERVICE DES MOINES IA
1000 AM CDT FRI APR 29 2016

NOTE: "FAIR" INDICATES FEW OR NO CLOUDS BELOW 12,000 FEET WITH NO
SIGNIFICANT WEATHER AND/OR OBSTRUCTIONS TO VISIBILITY.

* - THESE STATIONS ARE NOT NWS STATIONS...THUS NOT UNDER NWS
QUALITY CONTROL.  THEY ALSO DO NOT REPORT WEATHER SUCH
AS PRECIPITATION OR FOG.

IAZ001>003-012>014-020>022-031>034-043>046-291600-
   NORTHWEST IOWA

CITY           SKY/WX    TMP DP  RH WIND       PRES   REMARKS
CARROLL *      CLOUDY    43  41  93 NE14      30.09R
CHEROKEE *     CLOUDY    43  40  91 NE9       30.09S
DENISON *      CLOUDY    43  39  87 NE12      30.06R
LE MARS *      CLOUDY    41  39  93 NE10G18   30.11R
ORANGE CITY *  CLOUDY    41  37  87 NE9       30.09F
SHELDON *      CLOUDY    41  39  93 NE15      30.09F
SIOUX CITY     CLOUDY    45  39  79 NE13      30.09S
SPENCER        CLOUDY    41  36  82 NE16      30.10F
STORM LAKE *   CLOUDY    41  39  93 NE17      30.09R
$$

IAZ055>058-069>071-079>083-090>094-291600-
   SOUTHWEST IOWA

CITY           SKY/WX    TMP DP  RH WIND       PRES   REMARKS
ATLANTIC *     CLOUDY    45  41  87 E6G13     30.12R
AUDUBON *      PTSUNNY   45  39  81 E10       30.12R
CLARINDA *       N/A    N/A N/A N/A MISG        N/A
COUNCIL BLFS *   N/A     45  39  81 E10       30.11R
CRESTON *      CLOUDY    46  41  81 E8        30.11F
HARLAN  *      CLOUDY    45  41  87 E8        30.14R
LAMONI         CLOUDY    49  44  83 NE12      30.08F
RED OAK *      CLOUDY    46  39  76 E9        30.12R
SHENANDOAH *   CLOUDY    48  43  81 NE12      30.10F
$$

IAZ047>049-059>061-072>074-084-291600-
   CENTRAL IOWA

CITY           SKY/WX    TMP DP  RH WIND       PRES   REMARKS
AMES           CLOUDY    45  40  82 E13       30.10R
ANKENY *       CLOUDY    46  43  87 E8        30.12R
BOONE *        CLOUDY    45  41  87 NE15      30.09R
CHARITON *     CLOUDY    48  45  87 NE7       30.10S
DES MOINES     CLOUDY    47  40  76 E8        30.12R
GRINNELL*      CLOUDY    45  41  87 E9        30.13R
KNOXVILLE *    CLOUDY    48  43  81 NE8       30.09F
MARSHALLTOWN   CLOUDY    45  40  82 NE13      30.10R
NEWTON *       CLOUDY    45  43  93 E9        30.13R
PELLA *        CLOUDY    46  42  85 NE6       30.12F
$$

IAZ004>006-015-016-023>025-035-036-291600-
   NORTH CENTRAL IOWA

CITY           SKY/WX    TMP DP  RH WIND       PRES   REMARKS
ALGONA *       PTSUNNY   41  39  93 NE20      30.10F
CLARION *      CLOUDY    45  41  87 NE18      30.10R
ESTHERVILLE    CLOUDY    40  37  89 N16       30.11F WCI  31
FORT DODGE *   CLOUDY    45  37  76 NE15      30.07F
MASON CITY     CLOUDY    42  38  85 N15       30.12F
FOREST CITY *  CLOUDY    41  37  87 N12       30.12F
WEBSTER CITY * CLOUDY    45  41  87 NE15G21   30.06S
IOWA FALLS *   CLOUDY    45  39  81 N15G21    30.09R
$$

IAZ007>011-017>019-026>030-037>042-050>054-066-291600-
   NORTHEAST IOWA

CITY           SKY/WX    TMP DP  RH WIND       PRES   REMARKS
CEDAR RAPIDS   CLOUDY    45  41  86 E7G20     30.11R
CHARLES CITY * PTSUNNY   43  39  87 NE15G21   30.11F
CLINTON *      CLOUDY    46  40  79 NE12      30.12R
DECORAH *      CLOUDY    41  36  81 NE12G18   30.10F
DUBUQUE        CLOUDY    43  39  86 NE12      30.10R
MONTICELLO *   CLOUDY    45  39  81 NE12      30.11R
OELWEIN *      PTSUNNY   45  41  87 N17       30.08F
WATERLOO       CLOUDY    44  37  76 NE16      30.08F
$$

IAZ064-065-067-068-078-291600-
   EAST CENTRAL IOWA

CITY           SKY/WX    TMP DP  RH WIND       PRES   REMARKS
DAVENPORT      CLOUDY    45  40  82 NE14      30.10R
IOWA CITY      CLOUDY    46  40  79 N8        30.14R
MT. PLEASANT * CLOUDY    48  46  93 NE7       30.13R
MUSCATINE *    CLOUDY    48  41  76 N6        30.13R
QUAD CITIES    CLOUDY    47  39  74 NE8       30.11R
$$

IAZ062-063-075>077-085>089-095>099-291600-
   SOUTHEAST IOWA

CITY           SKY/WX    TMP DP  RH WIND       PRES   REMARKS
BURLINGTON     CLOUDY    48  44  86 NE5       30.11R
FAIRFIELD *    CLOUDY    48  43  81 NE7       30.12R
FORT MADISON * CLOUDY    48  45  87 NE6       30.12R
KEOKUK *       CLOUDY    50  45  81 NE6       30.11R
OSKALOOSA *    CLOUDY    46  43  87 NE10      30.11F
OTTUMWA        CLOUDY    48  43  82 NE6       30.11S
WASHINGTON *   CLOUDY    46  45  93 NE7       30.13S
$$

ABBREVIATIONS USED IN REMARKS
   TC - TEMPERATURES IN CELSIUS
  WCI - WIND CHILL INDEX
   HX - HEAT INDEX
  VSB - VISIBILITY
$$




USA.gov is the U.S. government's official web portal to all federal, state and local government web resources and services.